Hourly Data Report for September 22, 2017

All times are specified in Local Standard Time (LST). Add 1 hour to adjust for Daylight Saving Time where and when it is observed.

PETAWAWA AWOS 2
ONTARIO

45°57'00.000" N
77°19'00.000" W
130.10 m
6106396
71625
YWA

Download Data

Hourly Data (September 2017)
Hourly Data Report for September 22, 2017
Temp Definition
°C
Dew Point Temp Definition
°C
Rel Hum Definition
%
Wind Dir Definition
10's deg

Wind Spd Definition
km/h
Visibility Definition
km
Stn Press Definition
kPa
Hmdx Definition


Wind Chill Definition


Weather Definition


TIME
00:00 19.1 17.6 91 12 6 14.5 100.51     LegendNANA
01:00 19.1 17.2 89 13 7 14.5 100.52     LegendNANA
02:00 19.0 16.5 85 13 6 14.5 100.50     LegendNANA
03:00 18.1 16.2 89   0 14.5 100.51     LegendNANA
04:00 16.8 15.6 93   0 14.5 100.55     LegendNANA
05:00 17.3 15.3 88   0 14.5 100.57     LegendNANA
06:00 15.9 14.8 93   0 14.5 100.60     LegendNANA
07:00 16.9 15.0 89 12 7 14.5 100.61     LegendNANA
08:00 18.0 15.3 84 12 9 14.5 100.63     LegendNANA
09:00 19.6 14.9 74 12 13 14.5 100.60     LegendNANA
10:00 21.3 15.0 67 12 9 14.5 100.60 25   LegendNANA
11:00 22.6 15.9 66 12 11 14.5 100.56 27   LegendNANA
12:00 24.4 16.4 61 11 11 14.5 100.52 29   LegendNANA
13:00 25.3 17.4 62 11 11 14.5 100.45 31   LegendNANA
14:00 25.5 16.3 57 12 15 14.5 100.33 30   LegendNANA
15:00 25.9 17.5 60 12 13 14.5 100.29 32   LegendNANA
16:00 25.8 16.9 58 12 11 14.5 100.22 31   LegendNANA
17:00 24.8 16.6 60 13 13 14.5 100.20 30   LegendNANA
18:00 23.4 16.6 66 12 6 14.5 100.22 28   LegendNANA
19:00 21.3 17.0 76   0 14.5 100.24 27   LegendNANA
20:00 20.1 17.4 84 14 4 14.5 100.20 26   LegendNANA
21:00 20.1 17.1 83   0 14.5 100.19 25   LegendNANA
22:00 19.3 16.5 84   0 14.5 100.24     LegendNANA
23:00 19.5 16.3 82 14 6 14.5 100.18     LegendNANA

Notes on Data Quality.

Legend

  • E = Estimated
  • M = Missing
  • NA = Not Available
  • ‡ = Partner data that is not subject to review by the National Climate Archives
Date modified: